This is the latest recevied weather packets stored in our database for station/object KE6LRO. If no packets are shown the sender has not sent any weather packets the latest 1 day(s).
| Time | Temp. | Humidity | Pressure | Rain* | Wind** | Luminosity | Snow |
|---|---|---|---|---|---|---|---|
| 1778055800 | -1.67° C | 93% | 1022.5 hPa | 0 mm | - | 0 W/m² | - |
| 1778055496 | -1.67° C | 93% | 1022.2 hPa | 0 mm | - | 0 W/m² | - |
| 1778055194 | -1.67° C | 93% | 1022.3 hPa | 0 mm | - | 0 W/m² | - |
| 1778054588 | -1.11° C | 92% | 1022.5 hPa | 0 mm | - | 0 W/m² | - |
| 1778053983 | -1.11° C | 92% | 1022.2 hPa | 0 mm | - | 0 W/m² | - |
| 1778053377 | -1.11° C | 91% | 1022.5 hPa | 0 mm | - | 0 W/m² | - |
| 1778053074 | -0.56° C | 90% | 1022.1 hPa | 0 mm | - | 0 W/m² | - |
| 1778052469 | -0.56° C | 90% | 1022.4 hPa | 0 mm | - | 0 W/m² | - |
| 1778052166 | -0.56° C | 89% | 1022.3 hPa | 0 mm | - | 0 W/m² | - |
| 1778051864 | -0.56° C | 89% | 1022.4 hPa | 0 mm | - | 0 W/m² | - |
| 1778051258 | 0° C | 87% | 1022.2 hPa | 0 mm | - | 0 W/m² | - |
| 1778050955 | 0° C | 88% | 1022.3 hPa | 0 mm | - | 0 W/m² | - |
| 1778050653 | 0° C | 87% | 1022.3 hPa | 0 mm | - | 0 W/m² | - |
| 1778050350 | 0.56° C | 86% | 1022.1 hPa | 0 mm | - | 0 W/m² | - |
| 1778049742 | 0.56° C | 85% | 1022.1 hPa | 0 mm | - | 0 W/m² | - |
| 1778049440 | 0.56° C | 85% | 1022.1 hPa | 0 mm | - | 0 W/m² | - |
| 1778049137 | 1.11° C | 84% | 1022 hPa | 0 mm | - | 0 W/m² | - |
| 1778047321 | 2.22° C | 82% | 1021.6 hPa | 0 mm | - | 0 W/m² | - |
| 1778046715 | 2.22° C | 79% | 1021.4 hPa | 0 mm | - | 0 W/m² | - |
| 1778046412 | 2.78° C | 81% | 1021.5 hPa | 0 mm | - | 0 W/m² | - |
| 1778045504 | 3.33° C | 77% | 1021.2 hPa | 0 mm | - | 0 W/m² | - |
| 1778045202 | 3.33° C | 77% | 1021.2 hPa | 0 mm | - | 0 W/m² | - |
| 1778044900 | 3.33° C | 77% | 1021.3 hPa | 0 mm | - | 0 W/m² | - |
| 1778044597 | 3.33° C | 76% | 1020.9 hPa | 0 mm | - | 0 W/m² | - |
| 1778044293 | 3.89° C | 75% | 1020.9 hPa | 0 mm | - | 0 W/m² | - |
* Rain latest hour (hover to see other rain measurements)
** Current wind speed in m/s (hover to see current wind gust speed)